| time (UTC) | temp C | wind direction | speed KPH | gust KPH | rain 1hr cm | rain 24hr cm | rain mn cm | humidity % | barometer mb |
| 20260504045203 | 15 | 180 | 1.6 | 8.0 | 0.00 | 0.00 | 0.00 | 66 | 1034.2 |
| 20260504043701 | 13 | 185 | 4.8 | 4.8 | 0.00 | 0.00 | 0.00 | 69 | 1033.9 |
| 20260504042158 | 13 | 285 | 0.0 | 6.4 | 0.00 | 0.00 | 0.00 | 70 | 1034.2 |
| 20260504040653 | 13 | 202 | 6.4 | 6.4 | 0.00 | 0.00 | 0.00 | 69 | 1034.2 |
| 20260504035149 | 14 | 231 | 0.0 | 4.8 | 0.00 | 0.00 | 0.00 | 68 | 1034.3 |
| 20260504033647 | 14 | 240 | 0.0 | 6.4 | 0.00 | 0.00 | 0.00 | 67 | 1034.6 |
| 20260504032144 | 15 | 246 | 0.0 | 3.2 | 0.00 | 0.00 | 0.00 | 66 | 1034.5 |
| 20260504030640 | 15 | 187 | 0.0 | 3.2 | 0.00 | 0.00 | 0.00 | 66 | 1034.6 |
| 20260504025136 | 15 | 180 | 0.0 | 3.2 | 0.00 | 0.00 | 0.00 | 65 | 1034.8 |
| 20260504023633 | 13 | 246 | 0.0 | 3.2 | 0.00 | 0.00 | 0.00 | 68 | 1034.6 |
| 20260504022133 | 14 | 240 | 0.0 | 0.0 | 0.00 | 0.00 | 0.00 | 67 | 1035.0 |
| 20260504020630 | 13 | 240 | 1.6 | 1.6 | 0.00 | 0.00 | 0.00 | 68 | 1034.6 |
| 20260504015125 | 13 | 246 | 0.0 | 0.0 | 0.00 | 0.00 | 0.00 | 68 | 1034.5 |
| 20260504013621 | 15 | 246 | 0.0 | 0.0 | 0.00 | 0.00 | 0.00 | 65 | 1034.8 |
| 20260504012120 | 16 | 246 | 0.0 | 0.0 | 0.00 | 0.00 | 0.00 | 61 | 1034.3 |
| 20260504010620 | 17 | 215 | 0.0 | 3.2 | 0.00 | 0.00 | 0.00 | 56 | 1034.0 |
| 20260504005116 | 18 | 209 | 0.0 | 4.8 | 0.00 | 0.00 | 0.00 | 53 | 1033.7 |
| 20260504003613 | 18 | 175 | 3.2 | 11.3 | 0.00 | 0.00 | 0.00 | 51 | 1034.0 |
| 20260504002110 | 19 | 251 | 8.0 | 8.0 | 0.00 | 0.00 | 0.00 | 49 | 1034.1 |
| 20260504000607 | 19 | 202 | 4.8 | 14.5 | 0.00 | 0.00 | 0.00 | 48 | 1033.9 |
| 20260503235104 | 20 | 194 | 8.0 | 14.5 | 0.00 | 0.00 | 0.00 | 47 | 1034.2 |
| 20260503233602 | 20 | 220 | 8.0 | 9.7 | 0.00 | 0.00 | 0.00 | 45 | 1033.9 |
| 20260503232059 | 20 | 330 | 3.2 | 25.7 | 0.00 | 0.00 | 0.00 | 45 | 1034.1 |
| 20260503230555 | 20 | 234 | 14.5 | 24.1 | 0.00 | 0.00 | 0.00 | 44 | 1034.3 |
| 20260503225050 | 20 | 228 | 11.3 | 25.7 | 0.00 | 0.00 | 0.00 | 44 | 1034.5 |
| 20260503223550 | 20 | 223 | 6.4 | 11.3 | 0.00 | 0.00 | 0.00 | 45 | 1034.4 |
| 20260503222047 | 20 | 164 | 8.0 | 25.7 | 0.00 | 0.00 | 0.00 | 46 | 1034.5 |
| 20260503220543 | 19 | 68 | 3.2 | 11.3 | 0.00 | 0.00 | 0.00 | 45 | 1034.8 |
| 20260503215040 | 20 | 252 | 6.4 | 20.9 | 0.00 | 0.00 | 0.00 | 45 | 1034.5 |
| 20260503213539 | 19 | 254 | 20.9 | 25.7 | 0.00 | 0.00 | 0.00 | 45 | 1035.0 |
| 20260503212036 | 19 | 180 | 9.7 | 19.3 | 0.00 | 0.00 | 0.00 | 46 | 1035.0 |
| 20260503210531 | 18 | 184 | 9.7 | 33.8 | 0.00 | 0.00 | 0.00 | 46 | 1035.4 |
| 20260503205026 | 18 | 201 | 9.7 | 24.1 | 0.00 | 0.00 | 0.00 | 45 | 1035.6 |
| 20260503203523 | 18 | 203 | 6.4 | 29.0 | 0.00 | 0.00 | 0.00 | 45 | 1036.3 |
| 20260503202021 | 17 | 200 | 4.8 | 19.3 | 0.00 | 0.00 | 0.00 | 51 | 1036.3 |
| 20260503200518 | 17 | 263 | 6.4 | 32.2 | 0.00 | 0.00 | 0.00 | 52 | 1036.8 |
| 20260503195015 | 16 | 180 | 6.4 | 35.4 | 0.00 | 0.00 | 0.00 | 53 | 1037.0 |
| 20260503193514 | 16 | 249 | 11.3 | 16.1 | 0.00 | 0.00 | 0.00 | 53 | 1037.4 |
| 20260503192014 | 16 | 144 | 9.7 | 16.1 | 0.00 | 0.00 | 0.00 | 52 | 1037.3 |
| 20260503190510 | 16 | 194 | 3.2 | 16.1 | 0.00 | 0.00 | 0.00 | 50 | 1037.4 |
| 20260503185009 | 16 | 228 | 3.2 | 17.7 | 0.00 | 0.00 | 0.00 | 51 | 1037.5 |
| 20260503183504 | 15 | 193 | 8.0 | 32.2 | 0.00 | 0.00 | 0.00 | 52 | 1037.4 |
| 20260503182003 | 15 | 205 | 4.8 | 17.7 | 0.00 | 0.00 | 0.00 | 54 | 1037.7 |
| 20260503180500 | 15 | 199 | 3.2 | 30.6 | 0.00 | 0.00 | 0.00 | 54 | 1038.1 |
| 20260503174956 | 15 | 198 | 4.8 | 17.7 | 0.00 | 0.00 | 0.00 | 56 | 1038.3 |
| 20260503173451 | 14 | 214 | 8.0 | 19.3 | 0.00 | 0.00 | 0.00 | 60 | 1038.8 |
| 20260503171948 | 13 | 232 | 24.1 | 24.1 | 0.00 | 0.00 | 0.00 | 62 | 1039.6 |
| 20260503170444 | 12 | 195 | 8.0 | 17.7 | 0.00 | 0.00 | 0.00 | 67 | 1040.0 |
| 20260503150420 | 12 | 226 | 20.9 | 20.9 | 0.00 | 0.00 | 0.00 | 60 | 1041.2 |
| 20260503130356 | 10 | 206 | 4.8 | 24.1 | 0.00 | 0.00 | 0.00 | 60 | 1042.0 |
| 20260503110337 | 8 | 217 | 12.9 | 14.5 | 0.00 | 0.00 | 0.00 | 60 | 1041.8 |
| 20260503090320 | 9 | 78 | 1.6 | 16.1 | 0.00 | 0.00 | 0.00 | 55 | 1042.7 |
| 20260503080311 | 8 | 222 | 4.8 | 9.7 | 0.00 | 0.00 | 0.00 | 58 | 1042.8 |
| 20260503071758 | 7 | 210 | 3.2 | 8.0 | 0.00 | 0.00 | 0.00 | 63 | 1042.9 |
| 20260503070255 | 6 | 169 | 0.0 | 3.2 | 0.00 | 0.00 | 0.00 | 64 | 1042.9 |
| 20260503060250 | 6 | 180 | 0.0 | 3.2 | 0.00 | 0.00 | 0.00 | 67 | 1043.4 |
| 20260503054749 | 5 | 120 | 0.0 | 0.0 | 0.00 | 0.00 | 0.00 | 71 | 1043.7 |
| 20260503053248 | 5 | 106 | 0.0 | 0.0 | 0.00 | 0.00 | 0.00 | 71 | 1044.0 |
| 20260503051748 | 6 | 106 | 0.0 | 1.6 | 0.00 | 0.00 | 0.00 | 69 | 1043.8 |
| 20260503050244 | 6 | 105 | 0.0 | 3.2 | 0.00 | 0.00 | 0.00 | 69 | 1044.2 |